| time (UTC) | temp F | wind direction | speed MPH | gust MPH | rain 1hr in | rain 24hr in | rain mn in | humidity % | barometer mb |
| 20260505021542 | 52 | 213 | 0.0 | 0.0 | 0.00 | 0.00 | 0.00 | 69 | 1005.7 |
| 20260505020040 | 52 | 213 | 0.0 | 0.0 | 0.00 | 0.00 | 0.00 | 67 | 1005.7 |
| 20260505014600 | 53 | 213 | 0.0 | 0.0 | 0.00 | 0.00 | 0.00 | 66 | 1005.5 |
| 20260505013042 | 53 | 213 | 0.0 | 0.0 | 0.00 | 0.00 | 0.00 | 66 | 1005.4 |
| 20260505011539 | 54 | 213 | 0.0 | 0.0 | 0.00 | 0.00 | 0.00 | 64 | 1005.2 |
| 20260505010038 | 54 | 213 | 0.0 | 0.0 | 0.00 | 0.00 | 0.00 | 61 | 1005.0 |
| 20260505004542 | 55 | 213 | 0.0 | 0.0 | 0.00 | 0.00 | 0.00 | 61 | 1004.8 |
| 20260505003037 | 56 | 213 | 0.0 | 0.0 | 0.00 | 0.00 | 0.00 | 59 | 1004.6 |
| 20260505001537 | 57 | 213 | 0.0 | 0.0 | 0.00 | 0.00 | 0.00 | 55 | 1004.4 |
| 20260505000040 | 60 | 213 | 0.0 | 0.0 | 0.00 | 0.00 | 0.00 | 50 | 1004.3 |
| 20260504234548 | 62 | 213 | 0.0 | 0.0 | 0.00 | 0.00 | 0.00 | 44 | 1004.0 |
| 20260504233033 | 65 | 211 | 0.0 | 0.0 | 0.00 | 0.00 | 0.00 | 39 | 1003.9 |
| 20260504231527 | 66 | 227 | 0.0 | 3.0 | 0.00 | 0.00 | 0.00 | 36 | 1003.8 |
| 20260504230026 | 67 | 204 | 0.0 | 4.0 | 0.00 | 0.00 | 0.00 | 34 | 1003.5 |
| 20260504224528 | 68 | 193 | 0.0 | 6.0 | 0.00 | 0.00 | 0.00 | 33 | 1003.3 |
| 20260504223025 | 68 | 167 | 0.0 | 9.0 | 0.00 | 0.00 | 0.00 | 33 | 1003.3 |
| 20260504221529 | 69 | 228 | 1.0 | 9.0 | 0.00 | 0.00 | 0.00 | 32 | 1003.2 |
| 20260504220024 | 69 | 147 | 0.0 | 9.0 | 0.00 | 0.00 | 0.00 | 32 | 1003.2 |
| 20260504214523 | 69 | 297 | 3.0 | 14.0 | 0.00 | 0.00 | 0.00 | 32 | 1003.1 |
| 20260504213044 | 69 | 150 | 0.0 | 11.0 | 0.00 | 0.00 | 0.00 | 33 | 1003.3 |
| 20260504211522 | 69 | 199 | 0.0 | 15.0 | 0.00 | 0.00 | 0.00 | 32 | 1003.3 |
| 20260504210026 | 70 | 164 | 1.0 | 10.0 | 0.00 | 0.00 | 0.00 | 32 | 1003.2 |
| 20260504204523 | 71 | 271 | 1.0 | 9.0 | 0.00 | 0.00 | 0.00 | 31 | 1003.1 |
| 20260504203021 | 71 | 254 | 0.0 | 9.0 | 0.00 | 0.00 | 0.00 | 31 | 1003.1 |
| 20260504201525 | 71 | 211 | 0.0 | 12.0 | 0.00 | 0.00 | 0.00 | 32 | 1003.1 |
| 20260504200019 | 71 | 159 | 1.0 | 14.0 | 0.00 | 0.00 | 0.00 | 31 | 1003.2 |
| 20260504194519 | 70 | 238 | 2.0 | 11.0 | 0.00 | 0.00 | 0.00 | 33 | 1003.3 |
| 20260504193017 | 70 | 215 | 0.0 | 12.0 | 0.00 | 0.00 | 0.00 | 33 | 1003.3 |
| 20260504191518 | 70 | 229 | 3.0 | 13.0 | 0.00 | 0.00 | 0.00 | 36 | 1003.3 |
| 20260504190010 | 69 | 204 | 2.0 | 11.0 | 0.00 | 0.00 | 0.00 | 39 | 1003.3 |
| 20260504184514 | 66 | 218 | 0.0 | 10.0 | 0.00 | 0.00 | 0.00 | 37 | 1003.7 |
| 20260504183018 | 66 | 231 | 0.0 | 6.0 | 0.00 | 0.00 | 0.00 | 38 | 1003.9 |
| 20260504181510 | 66 | 290 | 0.0 | 8.0 | 0.00 | 0.00 | 0.00 | 36 | 1003.7 |
| 20260504180010 | 66 | 220 | 0.0 | 6.0 | 0.00 | 0.00 | 0.00 | 34 | 1003.7 |
| 20260504174617 | 66 | 205 | 0.0 | 6.0 | 0.00 | 0.00 | 0.00 | 34 | 1003.8 |
| 20260504173015 | 67 | 196 | 1.0 | 13.0 | 0.00 | 0.00 | 0.00 | 32 | 1003.9 |
| 20260504171510 | 68 | 315 | 3.0 | 16.0 | 0.00 | 0.00 | 0.00 | 33 | 1003.7 |
| 20260504110117 | 45 | 219 | 0.0 | 0.0 | 0.00 | 0.00 | 0.00 | 71 | 1007.0 |
| 20260504081529 | 40 | 236 | 0.0 | 0.0 | 0.00 | 0.00 | 0.00 | 74 | 1007.0 |
| 20260504050009 | 35 | 220 | 0.0 | 0.0 | 0.00 | 0.00 | 0.00 | 82 | 1006.9 |
| 20260504044521 | 35 | 220 | 0.0 | 0.0 | 0.00 | 0.00 | 0.00 | 82 | 1006.9 |
| 20260504043006 | 35 | 220 | 0.0 | 0.0 | 0.00 | 0.00 | 0.00 | 82 | 1006.8 |
| 20260504041502 | 34 | 220 | 0.0 | 0.0 | 0.00 | 0.00 | 0.00 | 84 | 1006.6 |
| 20260504040107 | 35 | 209 | 0.0 | 0.0 | 0.00 | 0.00 | 0.00 | 83 | 1006.6 |
| 20260504040001 | 35 | 209 | 0.0 | 0.0 | 0.00 | 0.00 | 0.00 | 83 | 1006.6 |
| 20260504034603 | 35 | 209 | 0.0 | 0.0 | 0.00 | 0.00 | 0.00 | 81 | 1006.4 |
| 20260504033113 | 35 | 207 | 0.0 | 2.0 | 0.00 | 0.00 | 0.00 | 81 | 1006.4 |
| 20260504031554 | 36 | 302 | 0.0 | 1.0 | 0.00 | 0.00 | 0.00 | 81 | 1006.2 |
| 20260504030054 | 36 | 303 | 0.0 | 0.0 | 0.00 | 0.00 | 0.00 | 81 | 1006.3 |
| 20260504024557 | 36 | 303 | 0.0 | 0.0 | 0.00 | 0.00 | 0.00 | 79 | 1006.3 |
| 20260504023054 | 36 | 303 | 0.0 | 0.0 | 0.00 | 0.00 | 0.00 | 81 | 1006.2 |